This is the latest recevied weather packets stored in our database for station/object KF7SOJ. If no packets are shown the sender has not sent any weather packets the latest 10 day(s).
| Time | Temp. | Humidity | Pressure | Rain* | Wind** | Luminosity | Snow |
|---|---|---|---|---|---|---|---|
| 1777777078 | 14.44° C | 45% | 932.2 hPa | 0 mm | - | 0 W/m² | - |
| 1777776775 | 14.44° C | 45% | 932.2 hPa | 0 mm | - | 0 W/m² | - |
| 1777776472 | 14.44° C | 45% | 932 hPa | 0 mm | - | 0 W/m² | - |
| 1777776169 | 15° C | 44% | 932 hPa | 0 mm | - | 0 W/m² | - |
| 1777775866 | 15° C | 44% | 932 hPa | 0 mm | - | 0 W/m² | - |
| 1777775563 | 15° C | 43% | 931.9 hPa | 0 mm | - | 1 W/m² | - |
| 1777775259 | 15.56° C | 42% | 932.1 hPa | 0 mm | - | 2 W/m² | - |
| 1777774954 | 16.67° C | 39% | 931.9 hPa | 0 mm | - | 3 W/m² | - |
| 1777774651 | 16.67° C | 38% | 931.8 hPa | 0 mm | - | 5 W/m² | - |
| 1777774347 | 16.67° C | 38% | 931.9 hPa | 0 mm | - | 8 W/m² | - |
| 1777774045 | 16.67° C | 37% | 931.9 hPa | 0 mm | - | 11 W/m² | - |
| 1777773742 | 16.67° C | 39% | 931.7 hPa | 0 mm | - | 15 W/m² | - |
| 1777773439 | 16.67° C | 39% | 931.8 hPa | 0 mm | - | 19 W/m² | - |
| 1777773136 | 17.22° C | 39% | 931.8 hPa | 0 mm | - | 24 W/m² | - |
| 1777772831 | 17.22° C | 38% | 931.7 hPa | 0 mm | - | 33 W/m² | - |
| 1777772530 | 17.78° C | 37% | 931.4 hPa | 0 mm | - | 40 W/m² | - |
| 1777770408 | 18.89° C | 36% | 931.4 hPa | 0 mm | - | 107 W/m² | - |
| 1777768288 | 18.89° C | 36% | 931.3 hPa | 0 mm | - | 109 W/m² | - |
| 1777767985 | 18.89° C | 34% | 931.3 hPa | 0 mm | - | 119 W/m² | - |
| 1777767681 | 19.44° C | 36% | 931.1 hPa | 0 mm | - | 130 W/m² | - |
| 1777767377 | 19.44° C | 35% | 931.1 hPa | 0 mm | - | 147 W/m² | - |
| 1777767075 | 20° C | 34% | 931.3 hPa | 0 mm | - | 183 W/m² | - |
| 1777766772 | 20° C | 34% | 931.3 hPa | 0 mm | - | 221 W/m² | - |
| 1777765864 | 20.56° C | 33% | 931.4 hPa | 0 mm | - | 302 W/m² | - |
| 1777764957 | 20° C | 33% | 931.4 hPa | 0 mm | - | 285 W/m² | - |
* Rain latest hour (hover to see other rain measurements)
** Current wind speed in m/s (hover to see current wind gust speed)